Regional Weather Roundup
Issued by NWS Grand Forks, ND

Home | Current Version | Previous Version | Text Only | Print | Product List | Glossary Off
Versions: 1 2 3 4 5 6 7 8 9 10 11 12 13 14 15 16 17 18 19 20 21 22 23 24 25 26 27 28 29 30 31 32 33 34 35 36 37 38 39 40 41 42 43 44 45 46 47 48 49 50

000
ASUS43 KFGF 291110
RWRFGF
PRAIRIE TO PINES  WEATHER ROUNDUP
NATIONAL WEATHER SERVICE EASTERN NORTH DAKOTA/GRAND FORKS ND
600 AM CDT WED MAR 29 2017

 **SATELLITE DATA USED TO AUGMENT SKY COVER AT AUTOMATED STATIONS**
 *****  WEATHER ACROSS EASTERN NORTH DAKOTA  *****

CITY           SKY/WX    TMP DP  RH WIND       PRES   REMARKS
GRAND FORKS    MOCLDY    32  31  96 CALM      30.17F
GRAND FRKS AFB FAIR      30  30 100 CALM      30.16F
DEVILS LAKE    CLOUDY    34  34 100 S3        30.15F
FARGO          FAIR      38  33  82 E3        30.17S
WAHPETON ARPT  FAIR      37  32  81 CALM      30.18R
$$

 ***** WEATHER ACROSS CENTRAL AND WESTERN NORTH DAKOTA  *****

CITY           SKY/WX    TMP DP  RH WIND       PRES   REMARKS
BISMARCK       FAIR      37  36  96 E5        30.14S
MINOT          CLOUDY    45  41  86 S6        30.06S
JAMESTOWN      FOG       31  31 100 CALM      30.15S VSB 1/4
MINOT AFB      CLOUDY    39  39 100 CALM      30.05F
GARRISON         N/A     38  36  92 SE5       30.08F
WILLISTON      FOG       32  32 100 CALM      30.06F VSB 1/4
DICKINSON      FOG       36  36 100 S8        30.06S VSB 1/2
HETTINGER      FOG       37  37 100 S5        30.12R VSB 1/4
$$

 *****  OTHER AIRPORT OBSERVATIONS IN OUR AREA  *****

CITY           SKY/WX    TMP DP  RH WIND       PRES   REMARKS
WALHALLA       NOT AVBL
GRAFTON AIRPOR FAIR      32  32 100 CALM      30.19F
VALLEY CITY AR FAIR      37  37 100 CALM      30.17S
CANDO          NOT AVBL
CAVALIER APRT  FAIR      30  30 100 E3        30.17F FOG
GWINNER        SUNNY     37  37 100 MISG      30.16S FOG
SHEYENNE NWR     N/A     32  32 100 CALM      29.95S
ROLLA          MIX PCPN  36  36 100 S13       30.10F
 ***** THE ABOVE OBSERVATIONS ARE NON NWS ARE NOT QUALITY
       CONTROLLED AND MAY MIS-REPORT RAIN FOR SNOW...
$$

  *****  WEATHER ACROSS NORTHERN MINNESOTA  *****

CITY           SKY/WX    TMP DP  RH WIND       PRES   REMARKS
FLAG ISLAND    CLOUDY    34  21  60 E7        30.24R
WARROAD        FAIR      34  28  80 E7        30.22S
ROSEAU         MOCLDY    37  30  75 E6        30.20F
HALLOCK        FAIR      36  30  80 SW3       30.19R
THF RVR FALLS  MOCLDY    37  28  70 E10       30.19F
BAUDETTE       CLOUDY    34  25  69 SE9       30.23S
WASKISH        FAIR      34  27  75 E7        30.23S
CROOKSTON      FAIR      37  30  75 E6        30.18F
GREENBUSH NDAW   N/A     37  30  75 SE7         N/A
$$
  *****  WEATHER ACROSS CENTRAL AND WEST MINNESOTA  *****

CITY           SKY/WX    TMP DP  RH WIND       PRES   REMARKS
FOSSTON        FAIR      37  28  70 SE7       30.19S
BEMIDJI        FAIR      33  27  79 E6        30.21S
PARK RAPIDS    FAIR      38  25  59 SE7       30.20S
ELBOW LAKE     FAIR      38  33  82 CALM      30.18R
WADENA         FAIR      37  27  65 E5        30.20R
DETROIT LAKES  FAIR      41  30  65 SE3       30.20R
MOORHEAD       FAIR      36  32  87 CALM      30.18S
FERGUS FALLS   FAIR      41  30  65 E6        30.21R
MORRIS MN      FAIR      36  30  80 E8        30.16F
STAPLES        FAIR      36  27  69 E3        30.21R
$$
  *****  WEATHER ELSEWHERE ACROSS MINNESOTA  *****

CITY           SKY/WX    TMP DP  RH WIND       PRES   REMARKS
DULUTH         FAIR      32  26  78 E13       30.28R WCI  22
INTRNTL FALLS  FAIR      32  24  72 E9        30.27S WCI  24
ELY            FAIR      25  21  86 CALM      30.29S
CLOQUET        FAIR      34  27  75 E8        30.27R
WHEATON        FAIR      32  30  93 CALM      30.19S FOG
BRAINERD       FAIR      33  28  81 E5        30.23R
HIBBING        FAIR      27  24  89 E3        30.26S
ALEXANDRIA     FAIR      38  30  73 E6        30.19S
SAINT CLOUD    FAIR      36  29  75 NE6       30.21R
MINNEAPOLIS    CLOUDY    45  32  60 E8        30.20R
$$

  *****  WEATHER ACROSS SOUTH DAKOTA  *****

CITY           SKY/WX    TMP DP  RH WIND       PRES   REMARKS
SIOUX FALLS    CLOUDY    42  38  85 E5        30.13S
BROOKINGS      FAIR      39  34  82 E3        30.13F
WATERTOWN      FAIR      37  34  89 N5        30.14F
HURON          FAIR      41  38  89 CALM      30.13S
SISSETON         N/A     35  34  96 CALM      30.16S
ABERDEEN       FAIR      36  32  85 N6        30.15F
MITCHELL       FAIR      40  37  89 NE3       30.13S
PIERRE         CLOUDY    42  40  92 N3        30.13R
MOBRIDGE       CLOUDY    44  39  82 CALM      30.11F
RAPID CITY     CLOUDY    39  38  96 CALM      30.11R
$$

  *****  SOME WEATHER IN NEARBY STATES *****

CITY           SKY/WX    TMP DP  RH WIND       PRES   REMARKS
GLASGOW MT     MOCLDY    39  29  67 NW5       30.00F
GREAT FALLS MT FAIR      41  26  55 SW15      30.05S
CHEYENNE WY    CLOUDY    35  33  92 N12       30.09S
SCOTTSBLUFF NE CLOUDY    39  37  92 W5        30.12S
OMAHA NE       LGT RAIN  47  42  83 E16       30.03F
DES MOINES IA  CLOUDY    45  40  82 E7        30.10S
DAVENPORT IA   CLOUDY    43  40  89 E20G25    30.15F
CHICAGO IL     FOG       35  33  92 NE8       30.23R VSB 3/4
EAU CLAIRE WI  FAIR      35  30  82 NE3       30.24R
LA CROSSE WI   FAIR      41  33  73 E7        30.23R
$$

  *****  SOME NATIONAL WEATHER *****

CITY           SKY/WX    TMP DP  RH WIND       PRES   REMARKS
LA GUARDIA NY  MOCLDY    46  38  73 N12       30.02R
RALEIGH NC     FAIR      57  50  77 NE3       30.02R
ATLANTA GA     FAIR      61  54  77 N3        30.02R
NEW ORLEANS LA FAIR      69  67  93 SE12      29.86S
OKLAHOMA CITY  CLOUDY    52  51  97 N8        29.59F
ALBUQUERQUE NM FAIR      42  39  89 N5        29.89R
SALT LAKE CITY FAIR      38  32  79 CALM      30.23R
LOS ANGELES CA FAIR      57  51  80 SE6       30.00F
BOISE ID       MOCLDY    41  31  67 SE10      30.20F
SEATTLE WA     LGT RAIN  46  45  96 E6        29.99F
$$

*** WEATHER ACROSS MANITOBA...SASKATCHEWAN AND ONTARIO ***
                ***ONTARIO***

CITY           SKY/WX    TMP DP  RH WIND       PRES   REMARKS
GERALDTON      PTCLDY    14  12  92 VRB2      30.39S
THUNDER BAY    PTCLDY    25  23  93 CALM      30.40R
SIOUX LOOKOUT  CLOUDY    27  18  69 SE5       30.32S WCI  21
TORONTO        PTCLDY    34  28  80 NW8       30.22R
BIG TROUT LK   PTCLDY     7   5  92 SE3       30.42R
PICKLE LAKE    PTCLDY    14  12  92 SE7       30.36  WCI   4
DRYDEN         CLOUDY    28  19  69 E6        30.29S WCI  22
KENORA         NOT AVBL
$$
                *** MANITOBA***

CITY           SKY/WX    TMP DP  RH WIND       PRES   REMARKS
BRANDON        CLOUDY    32  30  93 E9        30.10F WCI  24
DAUPHIN        CLOUDY    32  30  93 SE8       30.11F WCI  25
ISLAND LAKE    PTCLDY    21  14  73 SE7       30.30S WCI  13
PILOT MOUND      N/A     36  32  87 SE10        N/A
THE PAS        MOCLDY    28  21  74 E10       30.09F WCI  19
THOMPSON       CLEAR     12   9  85 E5        30.23F WCI   4
WINNIPEG       CLOUDY    36  27  69 SE8       30.18S
LYNN LAKE      FLURRIES  19  16  86 SE6       30.11F WCI  11
CHURCHILL      PTCLDY     1  -2  85 S10       30.37F WCI -14
GILLAM         PTCLDY    14   9  79 SE7       30.32F WCI   4
$$
                ***SASKATCHEWAN***

CITY           SKY/WX    TMP DP  RH WIND       PRES   REMARKS
ESTEVAN        MOCLDY    30  30 100 E6        30.04F WCI  24
KINDERSLEY     MOCLDY    28  27  93 S9        29.84R WCI  20
LLOYDMINSTER   FOG       34  34 100 E7        29.85R VSB 3/8
PRINCE ALBERT  LGT RAIN  34  32  93 E10       29.93F FOG
REGINA         FOG       34  34 100 SE14      29.95F VSB 1   WCI  24
YORKTON        FOG       32  32 100 SE12G18   30.01S VSB 3/4 WCI  23
N. BATTLEFORD  CLOUDY    34 N/A N/A E10       29.86R VSB 1
LA RONGE       CLOUDY    32  27  80 E8        29.98F WCI  25
SASKATOON      CLOUDY    36  34  93 SE8       29.87F
SWIFT CURRENT  MOCLDY    36  28  75 SW16      29.88F
$$
NOTE: THESE ARE AUTOMATED STATIONS WITH LIMITED QUALITY CONTROL
      "FAIR" INDICATES FEW OR NO CLOUDS BELOW 12,000 FEET WITH NO
      SIGNIFICANT WEATHER AND/OR OBSTRUCTIONS TO VISIBILITY.
      SKY/WX - SKY CONDITION AND SIGNIFICANT WEATHER.
      TMP - AIR TEMPERATURE.    DP   - DEWPOINT TEMPERATURE.
      RH  - RELATIVE HUMIDITY.  PRES - PRESSURE.
      HX  - HEAT INDEX.         WCI  - WIND CHILL INDEX.
$




USA.gov is the U.S. government's official web portal to all federal, state and local government web resources and services.